AFR1U KJFK-LFPG

Flight info

Callsign AFR1U
Flight time N/A
Altitude 35000
Route HAPIE DCT YAHOO DCT WHALE N167B PORTI/M084F360 DCT 47N050W 49N040W 51N030W 53N020W DCT MALOT DCT GISTI/N0481F370 DCT LESLU DCT ANNET UM25 INGOR/N0485F280 UM25 LUKIP
Aircraft B77W/H-SDE1E2E3FGHIJ2J3J4J5M1RWXY/LB1D1

Departure

Time N/A
Airport John F. Kennedy International Airport (KJFK)

Arrival

Time 2026-05-05 02:18
Airport Charles de Gaulle International Airport (LFPG)
Time Latitude Longitude Altitude Speed Heading
2026-05-04 22:59 49.90022 -36.11250 37325 ft 520 kts 69°
2026-05-04 22:59 49.91132 -36.05980 37334 ft 520 kts 69°
2026-05-04 23:00 49.93369 -35.95313 37336 ft 520 kts 69°
2026-05-04 23:00 49.95597 -35.84630 37349 ft 520 kts 68°
2026-05-04 23:01 49.97815 -35.73939 37347 ft 520 kts 68°
2026-05-04 23:01 50.00022 -35.63244 37347 ft 519 kts 68°
2026-05-04 23:02 50.02217 -35.52549 37347 ft 519 kts 68°
2026-05-04 23:02 50.04402 -35.41843 37359 ft 519 kts 68°
2026-05-04 23:03 50.06580 -35.31122 37354 ft 519 kts 68°
2026-05-04 23:03 50.08743 -35.20410 37361 ft 519 kts 68°
2026-05-04 23:04 50.10895 -35.09695 37361 ft 518 kts 68°
2026-05-04 23:04 50.13036 -34.98970 37366 ft 518 kts 68°
2026-05-04 23:05 50.15167 -34.88242 37371 ft 517 kts 68°
2026-05-04 23:05 50.17285 -34.77522 37371 ft 517 kts 68°
2026-05-04 23:06 50.19374 -34.66887 37357 ft 516 kts 68°
2026-05-04 23:06 50.21469 -34.56165 37378 ft 516 kts 68°
2026-05-04 23:07 50.23553 -34.45439 37379 ft 516 kts 68°
2026-05-04 23:07 50.25627 -34.34706 37374 ft 516 kts 68°
2026-05-04 23:08 50.27690 -34.23963 37378 ft 516 kts 68°
2026-05-04 23:08 50.29741 -34.13222 37372 ft 515 kts 68°
2026-05-04 23:09 50.31775 -34.02506 37367 ft 512 kts 68°
2026-05-04 23:09 50.33787 -33.91848 37378 ft 509 kts 68°
2026-05-04 23:10 50.35777 -33.81249 37376 ft 507 kts 68°
2026-05-04 23:10 50.37754 -33.70667 37403 ft 505 kts 67°
2026-05-04 23:11 50.39719 -33.60084 37389 ft 505 kts 67°
2026-05-04 23:11 50.41670 -33.49521 37384 ft 504 kts 67°
2026-05-04 23:12 50.43609 -33.38956 37383 ft 504 kts 67°
2026-05-04 23:12 50.45540 -33.28377 37431 ft 505 kts 67°
2026-05-04 23:13 50.47467 -33.17760 37396 ft 507 kts 67°
2026-05-04 23:13 50.49389 -33.07104 37394 ft 507 kts 68°
2026-05-04 23:14 50.51303 -32.96427 37390 ft 508 kts 68°
2026-05-04 23:14 50.53198 -32.85793 37394 ft 508 kts 68°
2026-05-04 23:15 50.54790 -32.76817 37396 ft 509 kts 68°
2026-05-04 23:15 50.56682 -32.66082 37399 ft 509 kts 68°
2026-05-04 23:16 50.58564 -32.55337 37395 ft 509 kts 68°
2026-05-04 23:16 50.60437 -32.44583 37397 ft 509 kts 68°
2026-05-04 23:17 50.62299 -32.33825 37396 ft 510 kts 68°
2026-05-04 23:17 50.64153 -32.23052 37396 ft 509 kts 68°
2026-05-04 23:18 50.65996 -32.12275 37402 ft 509 kts 69°
2026-05-04 23:18 50.67826 -32.01503 37401 ft 509 kts 69°
2026-05-04 23:19 50.69636 -31.90792 37423 ft 509 kts 69°
2026-05-04 23:19 50.71450 -31.79985 37409 ft 510 kts 69°
2026-05-04 23:20 50.73257 -31.69152 37403 ft 510 kts 69°
2026-05-04 23:20 50.75054 -31.58306 37410 ft 511 kts 69°
2026-05-04 23:21 50.76844 -31.47439 37453 ft 511 kts 70°
2026-05-04 23:21 50.78627 -31.36543 37420 ft 512 kts 70°
2026-05-04 23:22 50.80402 -31.25622 37418 ft 513 kts 70°
2026-05-04 23:22 50.82166 -31.14701 37416 ft 513 kts 70°
2026-05-04 23:23 50.83920 -31.03767 37462 ft 512 kts 70°
2026-05-04 23:23 50.85666 -30.92823 37427 ft 513 kts 71°
2026-05-04 23:24 50.87398 -30.81880 37424 ft 513 kts 71°
2026-05-04 23:24 50.89120 -30.70930 37429 ft 512 kts 71°
2026-05-04 23:25 50.90832 -30.59976 37428 ft 512 kts 71°
2026-05-04 23:25 50.92522 -30.49093 37435 ft 512 kts 72°
2026-05-04 23:26 50.94211 -30.38136 37425 ft 511 kts 72°
2026-05-04 23:26 50.95886 -30.27191 37429 ft 511 kts 72°
2026-05-04 23:27 50.97552 -30.16236 37435 ft 511 kts 72°
2026-05-04 23:27 50.99211 -30.05266 37433 ft 511 kts 72°
2026-05-04 23:28 51.01259 -29.94551 37439 ft 504 kts 63°
2026-05-04 23:28 51.03885 -29.84237 37444 ft 504 kts 63°
2026-05-04 23:29 51.06536 -29.73912 37445 ft 505 kts 63°
2026-05-04 23:29 51.09151 -29.63543 37447 ft 506 kts 64°
2026-05-04 23:30 51.11738 -29.53133 37441 ft 506 kts 64°
2026-05-04 23:30 51.14311 -29.42699 37441 ft 505 kts 64°
2026-05-04 23:31 51.16872 -29.32278 37439 ft 505 kts 64°
2026-05-04 23:31 51.19423 -29.21854 37452 ft 505 kts 65°
2026-05-04 23:32 51.21965 -29.11423 37436 ft 504 kts 65°
2026-05-04 23:32 51.24492 -29.00998 37440 ft 503 kts 65°
2026-05-04 23:33 51.27008 -28.90571 37447 ft 503 kts 65°
2026-05-04 23:33 51.29511 -28.80153 37449 ft 502 kts 66°
2026-05-04 23:34 51.32008 -28.69707 37439 ft 502 kts 66°
2026-05-04 23:34 51.34487 -28.59282 37441 ft 502 kts 66°
2026-05-04 23:35 51.36944 -28.48904 37441 ft 502 kts 66°
2026-05-04 23:35 51.39409 -28.38440 37461 ft 502 kts 67°
2026-05-04 23:36 51.41863 -28.27974 37442 ft 502 kts 67°
2026-05-04 23:36 51.44309 -28.17490 37439 ft 502 kts 67°
2026-05-04 23:37 51.46744 -28.07002 37443 ft 502 kts 67°
2026-05-04 23:37 51.49168 -27.96508 37453 ft 502 kts 67°
2026-05-04 23:38 51.51586 -27.85992 37446 ft 502 kts 68°
2026-05-04 23:38 51.53994 -27.75464 37437 ft 502 kts 68°
2026-05-04 23:39 51.56392 -27.64926 37436 ft 502 kts 68°
2026-05-04 23:39 51.58777 -27.54394 37437 ft 502 kts 68°
2026-05-04 23:40 51.61159 -27.43825 37434 ft 502 kts 68°
2026-05-04 23:40 51.63526 -27.33268 37435 ft 502 kts 68°
2026-05-04 23:41 51.65886 -27.22688 37431 ft 502 kts 68°
2026-05-04 23:41 51.68237 -27.12095 37431 ft 502 kts 68°
2026-05-04 23:42 51.70578 -27.01493 37434 ft 502 kts 69°
2026-05-04 23:42 51.72895 -26.90948 37428 ft 502 kts 69°
2026-05-04 23:43 51.75233 -26.80247 37429 ft 502 kts 69°
2026-05-04 23:43 51.77532 -26.69675 37429 ft 503 kts 69°
2026-05-04 23:44 51.79839 -26.59013 37433 ft 503 kts 69°
2026-05-04 23:44 51.82136 -26.48335 37428 ft 503 kts 69°
2026-05-04 23:45 51.84424 -26.37646 37429 ft 503 kts 69°
2026-05-04 23:45 51.86704 -26.26941 37429 ft 503 kts 69°
2026-05-04 23:46 51.88972 -26.16235 37434 ft 503 kts 69°
2026-05-04 23:46 51.91228 -26.05528 37423 ft 503 kts 69°
2026-05-04 23:47 51.93476 -25.94801 37428 ft 502 kts 70°
2026-05-04 23:47 51.95712 -25.84071 37427 ft 502 kts 70°
2026-05-04 23:48 51.97938 -25.73334 37426 ft 502 kts 70°
2026-05-04 23:48 52.00154 -25.62590 37426 ft 502 kts 70°
2026-05-04 23:49 52.02360 -25.51835 37428 ft 502 kts 70°
2026-05-04 23:49 52.04554 -25.41082 37428 ft 502 kts 70°
2026-05-04 23:50 52.06728 -25.30369 37432 ft 502 kts 70°
2026-05-04 23:50 52.08903 -25.19591 37422 ft 502 kts 70°
2026-05-04 23:51 52.11070 -25.08790 37418 ft 502 kts 70°
2026-05-04 23:51 52.13227 -24.97984 37417 ft 502 kts 70°
2026-05-04 23:52 52.15374 -24.87165 37418 ft 502 kts 70°
2026-05-04 23:52 52.17509 -24.76348 37419 ft 502 kts 71°
2026-05-04 23:53 52.19636 -24.65509 37414 ft 502 kts 71°
2026-05-04 23:53 52.21752 -24.54665 37416 ft 502 kts 71°
2026-05-04 23:54 52.23856 -24.43826 37415 ft 501 kts 71°
2026-05-04 23:54 52.25950 -24.32970 37419 ft 501 kts 71°
2026-05-04 23:55 52.28037 -24.22092 37412 ft 501 kts 71°
2026-05-04 23:56 52.31139 -24.05810 37410 ft 501 kts 71°
2026-05-04 23:56 52.33195 -23.94937 37410 ft 500 kts 71°
2026-05-04 23:57 52.35239 -23.84067 37412 ft 500 kts 71°
2026-05-04 23:57 52.37274 -23.73179 37407 ft 500 kts 71°
2026-05-04 23:58 52.39296 -23.62299 37401 ft 500 kts 72°
2026-05-04 23:58 52.41297 -23.51469 37403 ft 500 kts 72°
2026-05-04 23:59 52.43299 -23.40569 37409 ft 499 kts 72°
2026-05-04 23:59 52.45303 -23.29596 37397 ft 499 kts 72°
2026-05-05 00:00 52.47268 -23.18766 37396 ft 499 kts 72°
2026-05-05 00:00 52.48916 -23.09636 37397 ft 499 kts 72°
2026-05-05 00:01 52.50877 -22.98717 37406 ft 498 kts 72°
2026-05-05 00:01 52.52826 -22.87790 37382 ft 498 kts 72°
2026-05-05 00:02 52.54765 -22.76859 37385 ft 498 kts 72°
2026-05-05 00:02 52.56693 -22.65920 37397 ft 498 kts 72°
2026-05-05 00:03 52.58612 -22.54971 37390 ft 498 kts 72°
2026-05-05 00:03 52.60506 -22.44094 37380 ft 498 kts 73°
2026-05-05 00:04 52.62402 -22.33138 37384 ft 498 kts 73°
2026-05-05 00:04 52.64286 -22.22186 37372 ft 498 kts 73°
2026-05-05 00:05 52.66161 -22.11216 37368 ft 497 kts 73°
2026-05-05 00:05 52.68024 -22.00245 37377 ft 497 kts 73°
2026-05-05 00:06 52.69877 -21.89269 37368 ft 496 kts 73°
2026-05-05 00:06 52.71717 -21.78297 37372 ft 496 kts 73°
2026-05-05 00:07 52.73547 -21.67320 37370 ft 496 kts 73°
2026-05-05 00:07 52.75366 -21.56333 37377 ft 496 kts 73°
2026-05-05 00:08 52.77175 -21.45341 37365 ft 496 kts 73°
2026-05-05 00:08 52.78959 -21.34427 37360 ft 495 kts 73°
2026-05-05 00:09 52.80745 -21.23431 37360 ft 495 kts 73°
2026-05-05 00:09 52.82519 -21.12434 37359 ft 495 kts 73°
2026-05-05 00:10 52.84282 -21.01442 37359 ft 495 kts 73°
2026-05-05 00:10 52.86036 -20.90426 37360 ft 495 kts 74°
2026-05-05 00:11 52.87780 -20.79399 37359 ft 495 kts 74°
2026-05-05 00:11 52.89515 -20.68360 37359 ft 495 kts 74°
2026-05-05 00:12 52.91239 -20.57321 37358 ft 495 kts 74°
2026-05-05 00:12 52.92953 -20.46260 37354 ft 495 kts 74°
2026-05-05 00:13 52.94658 -20.35189 37346 ft 495 kts 74°
2026-05-05 00:13 52.96352 -20.24117 37343 ft 495 kts 74°
2026-05-05 00:14 52.98024 -20.13115 37356 ft 495 kts 74°
2026-05-05 00:14 52.99649 -20.01935 37337 ft 495 kts 78°
2026-05-05 00:15 53.00305 -19.90625 37341 ft 496 kts 87°
2026-05-05 00:15 53.00473 -19.79162 37333 ft 496 kts 88°
2026-05-05 00:16 53.00637 -19.67709 37336 ft 496 kts 87°
2026-05-05 00:16 53.00825 -19.56245 37331 ft 497 kts 87°
2026-05-05 00:17 53.01019 -19.44776 37319 ft 497 kts 87°
2026-05-05 00:17 53.01204 -19.33316 37327 ft 496 kts 87°
2026-05-05 00:18 53.01376 -19.21868 37326 ft 496 kts 87°
2026-05-05 00:18 53.01536 -19.10403 37333 ft 496 kts 87°
2026-05-05 00:19 53.01685 -18.98948 37311 ft 496 kts 88°
2026-05-05 00:19 53.01823 -18.87488 37313 ft 496 kts 88°
2026-05-05 00:20 53.01949 -18.76027 37306 ft 496 kts 88°
2026-05-05 00:20 53.02065 -18.64580 37305 ft 496 kts 88°
2026-05-05 00:21 53.02169 -18.53135 37310 ft 495 kts 88°
2026-05-05 00:21 53.02263 -18.41707 37299 ft 495 kts 88°
2026-05-05 00:22 53.02346 -18.30253 37292 ft 495 kts 88°
2026-05-05 00:22 53.02417 -18.18832 37302 ft 495 kts 88°
2026-05-05 00:23 53.02478 -18.07397 37292 ft 495 kts 88°
2026-05-05 00:23 53.02527 -17.96034 37292 ft 495 kts 88°
2026-05-05 00:24 53.02566 -17.84597 37289 ft 495 kts 88°
2026-05-05 00:24 53.02594 -17.73175 37271 ft 494 kts 88°
2026-05-05 00:25 53.02611 -17.61738 37283 ft 494 kts 88°
2026-05-05 00:25 53.02616 -17.50317 37287 ft 494 kts 88°
2026-05-05 00:26 53.02611 -17.38895 37279 ft 494 kts 89°
2026-05-05 00:26 53.02595 -17.27487 37265 ft 494 kts 89°
2026-05-05 00:27 53.02569 -17.16078 37278 ft 494 kts 89°
2026-05-05 00:27 53.02531 -17.04667 37267 ft 494 kts 89°
2026-05-05 00:28 53.02482 -16.93256 37274 ft 494 kts 89°
2026-05-05 00:28 53.02423 -16.81842 37266 ft 494 kts 89°
2026-05-05 00:29 53.02352 -16.70443 37265 ft 494 kts 89°
2026-05-05 00:29 53.02271 -16.59026 37246 ft 494 kts 89°
2026-05-05 00:30 53.02178 -16.47606 37259 ft 494 kts 89°
2026-05-05 00:30 53.02075 -16.36180 37246 ft 495 kts 90°
2026-05-05 00:31 53.01960 -16.24749 37254 ft 495 kts 90°
2026-05-05 00:31 53.01836 -16.13396 37243 ft 495 kts 90°
2026-05-05 00:32 53.01699 -16.01967 37243 ft 495 kts 90°
2026-05-05 00:32 53.01552 -15.90538 37243 ft 495 kts 90°
2026-05-05 00:33 53.01394 -15.79114 37240 ft 495 kts 90°
2026-05-05 00:33 53.01225 -15.67688 37238 ft 495 kts 90°
2026-05-05 00:34 53.01045 -15.56279 37233 ft 495 kts 90°
2026-05-05 00:34 53.00854 -15.44845 37236 ft 495 kts 90°
2026-05-05 00:35 53.00652 -15.33430 37237 ft 494 kts 90°
2026-05-05 00:35 53.00440 -15.22025 37228 ft 494 kts 90°
2026-05-05 00:36 53.00218 -15.10625 37224 ft 494 kts 91°
2026-05-05 00:36 52.99987 -14.99315 37226 ft 493 kts 90°
2026-05-05 00:37 52.99952 -14.87922 37224 ft 492 kts 88°
2026-05-05 00:37 53.00043 -14.76540 37222 ft 492 kts 88°
2026-05-05 00:38 53.00095 -14.65174 37219 ft 492 kts 88°
2026-05-05 00:38 53.00107 -14.53819 37211 ft 492 kts 89°
2026-05-05 00:39 53.00102 -14.42463 37216 ft 492 kts 89°
2026-05-05 00:39 53.00088 -14.31119 37218 ft 492 kts 89°
2026-05-05 00:40 53.00066 -14.19759 37209 ft 492 kts 89°
2026-05-05 00:40 53.00024 -14.08405 37204 ft 492 kts 90°
2026-05-05 00:41 52.98881 -13.97203 37210 ft 495 kts 106°
2026-05-05 00:41 52.96210 -13.86674 37215 ft 496 kts 116°
2026-05-05 00:42 52.93113 -13.76504 37200 ft 497 kts 116°
2026-05-05 00:42 52.90003 -13.66285 37195 ft 497 kts 116°
2026-05-05 00:43 52.86920 -13.56042 37197 ft 497 kts 116°
2026-05-05 00:43 52.83850 -13.45809 37195 ft 497 kts 116°
2026-05-05 00:44 52.80769 -13.35574 37193 ft 497 kts 116°
2026-05-05 00:44 52.77681 -13.25368 37193 ft 496 kts 116°
2026-05-05 00:45 52.74582 -13.15177 37198 ft 496 kts 116°
2026-05-05 00:45 52.72001 -13.06721 37188 ft 496 kts 116°
2026-05-05 00:46 52.68360 -12.94844 37189 ft 496 kts 116°
2026-05-05 00:46 52.65768 -12.86421 37185 ft 496 kts 116°
2026-05-05 00:47 52.62641 -12.76302 37186 ft 495 kts 116°
2026-05-05 00:47 52.59504 -12.66192 37179 ft 495 kts 116°
2026-05-05 00:48 52.56362 -12.56111 37185 ft 495 kts 116°
2026-05-05 00:48 52.53216 -12.46053 37180 ft 495 kts 116°
2026-05-05 00:49 52.50060 -12.36010 37178 ft 495 kts 117°
2026-05-05 00:49 52.46918 -12.26051 37172 ft 495 kts 117°
2026-05-05 00:50 52.43725 -12.15971 37174 ft 495 kts 117°
2026-05-05 00:50 52.40570 -12.06051 37167 ft 494 kts 117°
2026-05-05 00:51 52.37382 -11.96071 37179 ft 494 kts 117°
2026-05-05 00:51 52.34191 -11.86118 37164 ft 494 kts 117°
2026-05-05 00:52 52.30998 -11.76203 37171 ft 493 kts 117°
2026-05-05 00:52 52.27792 -11.66285 37167 ft 493 kts 117°
2026-05-05 00:53 52.24583 -11.56398 37164 ft 493 kts 117°
2026-05-05 00:53 52.21373 -11.46550 37165 ft 493 kts 117°
2026-05-05 00:54 52.18142 -11.36676 37175 ft 492 kts 117°
2026-05-05 00:54 52.14916 -11.26856 37156 ft 492 kts 117°
2026-05-05 00:55 52.11681 -11.17046 37151 ft 491 kts 117°
2026-05-05 00:55 52.08446 -11.07276 37157 ft 490 kts 117°
2026-05-05 00:56 52.05204 -10.97525 37153 ft 490 kts 117°
2026-05-05 00:56 52.01985 -10.87879 37147 ft 490 kts 117°
2026-05-05 00:57 51.98730 -10.78167 37164 ft 489 kts 117°
2026-05-05 00:57 51.95472 -10.68480 37151 ft 489 kts 117°
2026-05-05 00:58 51.92204 -10.58801 37149 ft 489 kts 117°
2026-05-05 00:58 51.88933 -10.49150 37143 ft 489 kts 117°
2026-05-05 00:59 51.85655 -10.39518 37145 ft 488 kts 117°
2026-05-05 00:59 51.82369 -10.29899 37143 ft 488 kts 117°
2026-05-05 01:00 51.79080 -10.20308 37145 ft 488 kts 117°
2026-05-05 01:00 51.75783 -10.10728 37143 ft 488 kts 117°
2026-05-05 01:01 51.72473 -10.01148 37142 ft 488 kts 117°
2026-05-05 01:01 51.69156 -9.91585 37140 ft 488 kts 117°
2026-05-05 01:02 51.65837 -9.82053 37133 ft 488 kts 117°
2026-05-05 01:02 51.62503 -9.72514 37141 ft 488 kts 117°
2026-05-05 01:03 51.59169 -9.63011 37136 ft 488 kts 117°
2026-05-05 01:03 51.55823 -9.53509 37132 ft 488 kts 117°
2026-05-05 01:04 51.52467 -9.44017 37127 ft 488 kts 117°
2026-05-05 01:04 51.47437 -9.29852 37125 ft 487 kts 117°
2026-05-05 01:05 51.44074 -9.20427 37124 ft 487 kts 117°
2026-05-05 01:05 51.40705 -9.11021 37128 ft 486 kts 117°
2026-05-05 01:06 51.37333 -9.01639 37117 ft 486 kts 118°
2026-05-05 01:06 51.34014 -8.92438 37115 ft 485 kts 118°
2026-05-05 01:07 51.30632 -8.83097 37112 ft 485 kts 118°
2026-05-05 01:07 51.27246 -8.73780 37109 ft 485 kts 118°
2026-05-05 01:08 51.23852 -8.64474 37118 ft 485 kts 118°
2026-05-05 01:08 51.20452 -8.55188 37113 ft 485 kts 118°
2026-05-05 01:09 51.17048 -8.45921 37107 ft 484 kts 118°
2026-05-05 01:09 51.13645 -8.36690 37096 ft 483 kts 118°
2026-05-05 01:10 51.10240 -8.27490 37100 ft 482 kts 118°
2026-05-05 01:10 51.06831 -8.18307 37100 ft 481 kts 118°
2026-05-05 01:11 51.03416 -8.09138 37098 ft 481 kts 118°
2026-05-05 01:11 51.00010 -7.99994 37102 ft 481 kts 117°
2026-05-05 01:12 50.96987 -7.90561 37097 ft 478 kts 114°
2026-05-05 01:12 50.94058 -7.81090 37090 ft 478 kts 114°
2026-05-05 01:13 50.91134 -7.71705 37083 ft 478 kts 114°
2026-05-05 01:13 50.88169 -7.62279 37084 ft 478 kts 114°
2026-05-05 01:14 50.85191 -7.52871 37084 ft 478 kts 114°
2026-05-05 01:14 50.82203 -7.43467 37080 ft 478 kts 114°
2026-05-05 01:15 50.79209 -7.34081 37077 ft 478 kts 114°
2026-05-05 01:15 50.76214 -7.24726 37074 ft 478 kts 114°
2026-05-05 01:16 50.73205 -7.15362 37070 ft 478 kts 114°
2026-05-05 01:16 50.70193 -7.06022 37069 ft 478 kts 115°
2026-05-05 01:17 50.67176 -6.96703 37073 ft 478 kts 115°
2026-05-05 01:17 50.64145 -6.87373 37059 ft 478 kts 115°
2026-05-05 01:18 50.61105 -6.78051 37054 ft 479 kts 115°
2026-05-05 01:18 50.58056 -6.68740 37053 ft 479 kts 115°
2026-05-05 01:19 50.54993 -6.59417 37049 ft 479 kts 115°
2026-05-05 01:19 50.51928 -6.50127 37052 ft 479 kts 115°
2026-05-05 01:20 50.48853 -6.40837 37045 ft 479 kts 116°
2026-05-05 01:20 50.45773 -6.31567 37056 ft 479 kts 116°
2026-05-05 01:21 50.42680 -6.22295 37048 ft 479 kts 116°
2026-05-05 01:21 50.39603 -6.13105 37045 ft 479 kts 116°
2026-05-05 01:22 50.36497 -6.03860 37039 ft 479 kts 116°
2026-05-05 01:22 50.33383 -5.94623 37040 ft 479 kts 117°
2026-05-05 01:23 50.30260 -5.85397 37033 ft 479 kts 116°
2026-05-05 01:23 50.27133 -5.76191 37039 ft 479 kts 117°
2026-05-05 01:24 50.24000 -5.67000 37032 ft 479 kts 117°
2026-05-05 01:24 50.20853 -5.57803 37024 ft 479 kts 117°
2026-05-05 01:25 50.17705 -5.48635 37028 ft 480 kts 117°
2026-05-05 01:25 50.14549 -5.39477 37024 ft 479 kts 118°
2026-05-05 01:26 50.11382 -5.30323 37022 ft 479 kts 118°
2026-05-05 01:26 50.08215 -5.21200 37018 ft 479 kts 118°
2026-05-05 01:27 50.05041 -5.12088 37020 ft 478 kts 118°
2026-05-05 01:27 50.01887 -5.03067 37019 ft 478 kts 118°
2026-05-05 01:28 49.98706 -4.94000 37018 ft 477 kts 118°
2026-05-05 01:28 49.95528 -4.84972 37010 ft 477 kts 118°
2026-05-05 01:29 49.92877 -4.77467 37010 ft 476 kts 118°
2026-05-05 01:29 49.89683 -4.68453 37008 ft 476 kts 118°
2026-05-05 01:30 49.86485 -4.59460 37018 ft 476 kts 118°
2026-05-05 01:30 49.83273 -4.50457 37007 ft 476 kts 118°
2026-05-05 01:31 49.80057 -4.41477 37006 ft 476 kts 119°
2026-05-05 01:31 49.76841 -4.32527 36098 ft 476 kts 119°
2026-05-05 01:32 49.75240 -4.28081 37078 ft 470 kts 119°
2026-05-05 01:32 49.73644 -4.23657 37014 ft 471 kts 119°
2026-05-05 01:32 49.72049 -4.19244 36194 ft 470 kts 119°
2026-05-05 01:32 49.70455 -4.14836 37157 ft 471 kts 119°
2026-05-05 01:33 49.68856 -4.10426 36340 ft 468 kts 119°
2026-05-05 01:33 49.67276 -4.06034 37273 ft 472 kts 118°
2026-05-05 01:33 49.65953 -4.01333 37124 ft 483 kts 111°
2026-05-05 01:33 49.64993 -3.96314 37048 ft 491 kts 105°
2026-05-05 01:34 49.64068 -3.85795 36992 ft 497 kts 97°
2026-05-05 01:34 49.63500 -3.75227 36983 ft 497 kts 96°
2026-05-05 01:35 49.62901 -3.64613 36966 ft 496 kts 97°
2026-05-05 01:35 49.62248 -3.54036 36962 ft 494 kts 98°
2026-05-05 01:36 49.61567 -3.43500 36969 ft 493 kts 98°
2026-05-05 01:36 49.60879 -3.33011 36964 ft 493 kts 98°
2026-05-05 01:37 49.60181 -3.22500 36993 ft 493 kts 98°
2026-05-05 01:37 49.59475 -3.11963 36968 ft 495 kts 98°
2026-05-05 01:38 49.58756 -3.01390 36979 ft 496 kts 98°
2026-05-05 01:38 49.58027 -2.90813 36974 ft 497 kts 98°
2026-05-05 01:39 49.57288 -2.80225 36973 ft 496 kts 98°
2026-05-05 01:39 49.56540 -2.69666 36975 ft 496 kts 98°
2026-05-05 01:40 49.55784 -2.59118 36968 ft 495 kts 99°
2026-05-05 01:40 49.55018 -2.48577 36976 ft 494 kts 99°
2026-05-05 01:41 49.54243 -2.38048 36973 ft 494 kts 99°
2026-05-05 01:41 49.53461 -2.27549 36976 ft 494 kts 99°
2026-05-05 01:42 49.52669 -2.17052 36962 ft 493 kts 99°
2026-05-05 01:42 49.51869 -2.06578 36976 ft 493 kts 99°
2026-05-05 01:43 49.51058 -1.96096 36975 ft 493 kts 99°
2026-05-05 01:43 49.50245 -1.85687 36971 ft 493 kts 100°
2026-05-05 01:44 49.49417 -1.75214 36964 ft 494 kts 100°
2026-05-05 01:44 49.48577 -1.64717 36978 ft 494 kts 100°
2026-05-05 01:45 49.47719 -1.54202 36967 ft 495 kts 100°
2026-05-05 01:45 49.46853 -1.43706 36970 ft 496 kts 100°
2026-05-05 01:46 49.45977 -1.33189 36951 ft 496 kts 101°
2026-05-05 01:46 49.45093 -1.22677 36971 ft 496 kts 101°
2026-05-05 01:47 49.44197 -1.12160 36964 ft 496 kts 101°
2026-05-05 01:47 49.43293 -1.01645 36963 ft 497 kts 101°
2026-05-05 01:48 49.42378 -0.91130 36824 ft 499 kts 101°
2026-05-05 01:48 49.41915 -0.85866 35982 ft 508 kts 102°
2026-05-05 01:48 49.41436 -0.80432 35194 ft 506 kts 103°
2026-05-05 01:49 49.40969 -0.75145 34322 ft 506 kts 103°
2026-05-05 01:49 49.40493 -0.69797 33313 ft 507 kts 104°
2026-05-05 01:49 49.40012 -0.64432 32257 ft 507 kts 104°
2026-05-05 01:49 49.39528 -0.59073 31212 ft 506 kts 104°
2026-05-05 01:50 49.39046 -0.53740 30376 ft 502 kts 104°
2026-05-05 01:50 49.38568 -0.48466 29613 ft 496 kts 105°
2026-05-05 01:50 49.38093 -0.43261 28841 ft 490 kts 104°
2026-05-05 01:50 49.37619 -0.38102 28121 ft 483 kts 104°
2026-05-05 01:51 49.37150 -0.33030 27437 ft 478 kts 104°
2026-05-05 01:51 49.36684 -0.28016 26758 ft 473 kts 103°
2026-05-05 01:51 49.36227 -0.23053 26065 ft 469 kts 102°
2026-05-05 01:51 49.35866 -0.18078 25405 ft 467 kts 100°
2026-05-05 01:52 49.35576 -0.13136 24745 ft 464 kts 99°
2026-05-05 01:52 49.35305 -0.08221 24092 ft 461 kts 98°
2026-05-05 01:52 49.35028 -0.03325 23420 ft 459 kts 98°
2026-05-05 01:52 49.34740 0.01529 22642 ft 456 kts 98°
2026-05-05 01:53 49.34443 0.06344 21985 ft 451 kts 98°
2026-05-05 01:53 49.34141 0.11116 21326 ft 446 kts 98°
2026-05-05 01:53 49.33836 0.15829 20684 ft 442 kts 98°
2026-05-05 01:53 49.33532 0.20500 20061 ft 438 kts 98°
2026-05-05 01:54 49.33230 0.25117 19510 ft 433 kts 98°
2026-05-05 01:54 49.32934 0.29631 19347 ft 418 kts 98°
2026-05-05 01:54 49.32646 0.34006 19168 ft 405 kts 98°
2026-05-05 01:54 49.32366 0.38231 18999 ft 394 kts 98°
2026-05-05 01:55 49.32091 0.42352 18841 ft 382 kts 99°
2026-05-05 01:55 49.31822 0.46359 18664 ft 372 kts 98°
2026-05-05 01:55 49.31635 0.50217 18463 ft 364 kts 90°
2026-05-05 01:55 49.31985 0.54021 18196 ft 359 kts 80°
2026-05-05 01:56 49.32506 0.57774 17796 ft 357 kts 79°
2026-05-05 01:56 49.33039 0.61488 17377 ft 356 kts 79°
2026-05-05 01:56 49.33560 0.65193 16966 ft 355 kts 79°
2026-05-05 01:56 49.34064 0.68865 16609 ft 352 kts 80°
2026-05-05 01:57 49.34550 0.72499 16282 ft 341 kts 80°
2026-05-05 01:57 49.35013 0.76021 15747 ft 333 kts 80°
2026-05-05 01:57 49.35461 0.79477 15348 ft 330 kts 81°
2026-05-05 01:57 49.35903 0.82919 14977 ft 328 kts 81°
2026-05-05 01:58 49.36341 0.86346 14606 ft 327 kts 81°
2026-05-05 01:58 49.36775 0.89761 14230 ft 325 kts 81°
2026-05-05 01:58 49.37207 0.93164 13877 ft 324 kts 80°
2026-05-05 01:58 49.37635 0.96553 13480 ft 323 kts 80°
2026-05-05 01:59 49.38061 0.99927 13097 ft 321 kts 80°
2026-05-05 01:59 49.38484 1.03290 12733 ft 320 kts 80°
2026-05-05 01:59 49.38905 1.06632 12374 ft 318 kts 81°
2026-05-05 01:59 49.39322 1.09960 12015 ft 316 kts 81°
2026-05-05 02:00 49.39734 1.13263 11671 ft 315 kts 81°
2026-05-05 02:00 49.40144 1.16552 11317 ft 313 kts 81°
2026-05-05 02:00 49.40552 1.19832 10982 ft 312 kts 81°
2026-05-05 02:00 49.40958 1.23099 10632 ft 310 kts 81°
2026-05-05 02:01 49.41360 1.26353 10286 ft 309 kts 81°
2026-05-05 02:01 49.41756 1.29561 10104 ft 302 kts 81°
2026-05-05 02:01 49.42138 1.32654 9888 ft 297 kts 81°
2026-05-05 02:01 49.42519 1.35760 9527 ft 294 kts 81°
2026-05-05 02:02 49.42901 1.38877 9184 ft 292 kts 81°
2026-05-05 02:02 49.43270 1.41895 8868 ft 291 kts 81°
2026-05-05 02:02 49.43642 1.44937 8535 ft 289 kts 81°
2026-05-05 02:02 49.44012 1.47971 8222 ft 288 kts 81°
2026-05-05 02:03 49.44378 1.50989 7902 ft 287 kts 81°
2026-05-05 02:03 49.44748 1.54041 7584 ft 286 kts 81°
2026-05-05 02:03 49.45079 1.57040 7259 ft 280 kts 88°
2026-05-05 02:03 49.44784 1.59885 6976 ft 271 kts 118°
2026-05-05 02:04 49.43716 1.62142 6928 ft 257 kts 139°
2026-05-05 02:04 49.42292 1.63785 6865 ft 258 kts 150°
2026-05-05 02:04 49.40734 1.65220 6810 ft 263 kts 152°
2026-05-05 02:04 49.39152 1.66633 6761 ft 263 kts 152°
2026-05-05 02:05 49.37573 1.68048 6694 ft 262 kts 152°
2026-05-05 02:05 49.36007 1.69463 6626 ft 261 kts 152°
2026-05-05 02:05 49.34453 1.70882 6554 ft 259 kts 152°
2026-05-05 02:05 49.32904 1.72301 6515 ft 258 kts 152°
2026-05-05 02:06 49.31366 1.73712 6460 ft 257 kts 152°
2026-05-05 02:06 49.29833 1.75119 6407 ft 257 kts 152°
2026-05-05 02:06 49.28272 1.76448 6354 ft 256 kts 157°
2026-05-05 02:06 49.26662 1.77534 6285 ft 256 kts 159°
2026-05-05 02:07 49.25023 1.78592 6231 ft 256 kts 159°
2026-05-05 02:07 49.23386 1.79664 6169 ft 256 kts 159°
2026-05-05 02:07 49.21748 1.80753 6126 ft 257 kts 159°
2026-05-05 02:07 49.20114 1.81847 6068 ft 257 kts 158°
2026-05-05 02:08 49.18472 1.82951 6013 ft 258 kts 158°
2026-05-05 02:08 49.16832 1.84059 5962 ft 256 kts 156°
2026-05-05 02:08 49.15380 1.85589 5909 ft 255 kts 140°
2026-05-05 02:08 49.14112 1.87503 5907 ft 256 kts 136°
2026-05-05 02:09 49.12875 1.89477 5865 ft 259 kts 136°
2026-05-05 02:09 49.11623 1.91465 5806 ft 261 kts 136°
2026-05-05 02:09 49.10351 1.93464 5771 ft 263 kts 136°
2026-05-05 02:09 49.09062 1.95470 5710 ft 265 kts 137°
2026-05-05 02:10 49.07767 1.97470 5649 ft 265 kts 137°
2026-05-05 02:10 49.06467 1.99466 5589 ft 265 kts 137°
2026-05-05 02:10 49.05173 2.01446 5527 ft 264 kts 137°
2026-05-05 02:10 49.03878 2.03422 5457 ft 262 kts 137°
2026-05-05 02:11 49.02604 2.05364 5414 ft 255 kts 137°
2026-05-05 02:11 49.01373 2.07239 5324 ft 245 kts 137°
2026-05-05 02:11 49.00183 2.09046 5194 ft 237 kts 137°
2026-05-05 02:11 48.99037 2.10783 5094 ft 228 kts 137°
2026-05-05 02:12 48.97943 2.12450 5042 ft 216 kts 135°
2026-05-05 02:12 48.97195 2.16861 5064 ft 226 kts 88°
2026-05-05 02:12 48.97296 2.19233 5048 ft 224 kts 87°
2026-05-05 02:13 48.97415 2.21576 4843 ft 221 kts 87°
2026-05-05 02:13 48.97538 2.23892 4560 ft 220 kts 86°
2026-05-05 02:13 48.97664 2.26203 4255 ft 218 kts 86°
2026-05-05 02:13 48.97788 2.28497 3957 ft 217 kts 86°
2026-05-05 02:14 48.97911 2.30790 3665 ft 216 kts 86°
2026-05-05 02:14 48.97991 2.32294 3480 ft 215 kts 86°
2026-05-05 02:14 48.98150 2.35250 3132 ft 202 kts 86°
2026-05-05 02:14 48.98225 2.36646 2922 ft 194 kts 86°
2026-05-05 02:15 48.98364 2.39241 2570 ft 176 kts 86°
2026-05-05 02:15 48.98461 2.41062 2358 ft 174 kts 86°
2026-05-05 02:15 48.98559 2.42906 2124 ft 174 kts 85°
2026-05-05 02:15 48.98625 2.44140 1963 ft 173 kts 85°
2026-05-05 02:16 48.98722 2.45955 1728 ft 170 kts 85°
2026-05-05 02:16 48.98815 2.47687 1488 ft 157 kts 85°
2026-05-05 02:16 48.98901 2.49290 1325 ft 153 kts 85°
2026-05-05 02:16 48.98987 2.50905 1094 ft 152 kts 85°
2026-05-05 02:17 48.99073 2.52508 893 ft 149 kts 85°
2026-05-05 02:17 48.99156 2.54065 697 ft 147 kts 85°
2026-05-05 02:17 48.99243 2.55613 517 ft 146 kts 85°
2026-05-05 02:17 48.99323 2.57098 370 ft 138 kts 84°
2026-05-05 02:18 48.99394 2.58437 358 ft 105 kts 86°
2026-05-05 02:18 48.99436 2.59269 361 ft 52 kts 85°
2026-05-05 02:18 48.99455 2.59644 360 ft 26 kts 85°
2026-05-05 02:18 48.99501 2.59880 368 ft 22 kts 58°
2026-05-05 02:19 48.99602 2.59974 366 ft 14 kts
2026-05-05 02:19 48.99639 2.59925 364 ft 8 kts 281°
2026-05-05 02:19 48.99638 2.59824 364 ft 11 kts 268°
2026-05-05 02:19 48.99647 2.59715 368 ft 10 kts 308°
2026-05-05 02:20 48.99720 2.59684 364 ft 13 kts 354°
2026-05-05 02:20 48.99821 2.59671 360 ft 16 kts 355°
2026-05-05 02:20 48.99933 2.59658 365 ft 16 kts 355°
2026-05-05 02:20 49.00027 2.59647 359 ft 8 kts 355°
2026-05-05 02:21 49.00076 2.59606 368 ft 9 kts 294°
2026-05-05 02:21 49.00075 2.59509 365 ft 10 kts 265°
2026-05-05 02:21 49.00069 2.59400 366 ft 11 kts 265°
2026-05-05 02:21 49.00062 2.59274 365 ft 12 kts 265°
2026-05-05 02:22 49.00056 2.59139 362 ft 14 kts 265°
2026-05-05 02:22 49.00047 2.58982 365 ft 15 kts 265°
2026-05-05 02:22 49.00038 2.58820 359 ft 16 kts 265°
2026-05-05 02:22 49.00029 2.58656 359 ft 16 kts 265°
2026-05-05 02:23 49.00020 2.58491 359 ft 16 kts 266°
2026-05-05 02:23 49.00013 2.58327 364 ft 16 kts 265°
2026-05-05 02:23 49.00004 2.58163 359 ft 16 kts 266°
2026-05-05 02:23 48.99994 2.57999 360 ft 16 kts 264°
2026-05-05 02:24 48.99985 2.57837 364 ft 14 kts 265°
2026-05-05 02:24 48.99997 2.57755 368 ft 7 kts 322°
2026-05-05 02:24 49.00045 2.57736 365 ft 8 kts 354°
2026-05-05 02:24 49.00095 2.57728 362 ft 5 kts 354°
2026-05-05 02:25 49.00118 2.57725 365 ft 1 kts 354°
2026-05-05 02:25 49.00131 2.57723 366 ft 3 kts 354°
2026-05-05 02:25 49.00139 2.57722 367 ft 0 kts 354°